Location: Haut Kerinec
(48.0623°N, 4.4081°W)
Time: 17:39:34
(UTC+00:00)

Aureole 3 - Pass Details

Date: 01 June 2020
Orbit: 381 x 1235 km, 82.5° (Epoch: 07 July)

Event Time Altitude Azimuth Distance (km) Brightness Sun altitude
Rises 23:39:08 0° 349° (N) 2,482 8.3 -19.2°
Reaches altitude 10° 23:41:19 10° 348° (NNW) 1,525 6.8 -19.3°
Enters shadow 23:44:31 78° 264° (W) 409 2.6 -19.4°
